User: anonymous   Login
Location: Fort Wayne
(41.1310°N, 85.1290°W)
Time: 20:26:50
(UTC-04:00)
Language:

Cosmos 1980 - Orbit

View from above orbital plane
View from above orbital plane
View from above satellite
View from above satellite

Ground track
Ground track

The orbit data is extracted from the following two-line orbital elements,

1 19649U 88102A   15214.01570788 -.00000243  00000-0 -10163-3 0  9992
2 19649 071.0005 063.8538 0007820 273.9817 086.0411 14.14615861377678
Epoch (UTC): 02 August 2015 00:22:37
Eccentricity: 0.0007820
inclination: 71.0005°
perigee height: 838 km
apogee height: 849 km
right ascension of ascending node: 63.8538°
argument of perigee: 273.9817°
revolutions per day: 14.14615861
mean anomaly at epoch: 86.0411°
orbit number at epoch: 37767

The dashed part of the orbit path shows where the satellite is in the earth's shadow,  

DLR